Theta_e
316 316 321 330 337 340 343 344 341 343 334 334 334 334 332 333 335 332 328 325 325 324 325 324 321 321 320 320 320 319 319 318 318 318 318 317 317 317 317 316 317 317 318 319 327 331 331 336 336
316 316 321 326 337 345 340 341 343 337 333 334 333 333 333 334 333 332 329 324 323 320 319 319 319 318 318 319 319 319 319 319 319 318 317 318 318 319 319 318 318 318 318 321 326 331 333 338 337
316 318 322 317 334 342 341 339 340 334 335 336 335 333 333 334 332 327 320 320 319 318 318 317 316 316 317 318 319 321 322 322 322 321 319 318 318 319 319 320 320 320 321 323 326 327 329 336 339
322 323 323 317 324 336 339 337 336 335 335 334 333 333 334 334 333 322 319 318 318 317 317 318 319 320 321 321 322 322 322 322 322 321 321 320 319 318 318 319 320 321 322 323 323 325 328 334 334
324 323 316 318 321 336 336 336 337 335 335 333 333 333 333 333 321 318 318 318 318 319 321 321 321 321 321 322 322 322 322 322 322 322 321 320 320 319 318 318 317 317 318 319 320 323 325 326 326
321 318 316 320 336 337 336 337 335 334 334 333 332 333 333 334 333 330 320 320 320 321 321 321 321 321 321 321 321 321 322 322 322 323 323 325 326 326 325 327 326 324 321 317 315 315 315 317 318
317 314 318 323 337 339 338 337 335 335 335 335 334 333 333 334 335 337 334 321 320 320 320 321 321 321 321 321 321 321 322 322 322 324 326 337 337 337 334 334 336 338 329 334 326 331 321 316 315
320 315 319 319 338 339 338 338 337 336 336 336 335 335 334 334 336 338 335 332 321 321 321 322 322 327 324 324 323 323 323 323 323 328 339 340 338 336 335 338 339 338 340 339 338 340 340 337 322
321 316 315 326 338 335 337 337 338 337 335 336 336 335 335 335 337 339 338 340 332 334 336 336 335 338 332 337 327 338 335 337 334 336 331 337 338 338 339 338 340 339 337 338 338 342 341 341 337
319 314 327 336 337 337 338 341 341 339 338 337 336 335 336 336 338 336 337 340 339 340 341 340 341 341 339 339 339 340 341 339 339 340 340 338 334 339 340 342 344 343 342 341 339 338 338 340 342
320 321 336 340 338 339 335 337 341 339 340 338 336 336 336 337 336 335 336 337 338 340 342 341 342 341 341 340 341 341 342 340 341 341 341 341 340 343 343 343 344 344 346 348 347 345 341 336 337
321 338 340 340 337 335 334 335 337 337 339 337 337 336 336 336 335 336 336 338 339 341 342 342 343 345 342 342 341 342 340 341 341 342 342 342 342 341 340 342 343 344 348 349 349 348 348 344 340
333 336 340 340 339 338 335 335 335 336 340 337 337 337 337 337 335 335 337 339 339 343 342 343 343 345 344 344 343 342 342 341 341 341 343 343 342 342 342 342 340 342 346 348 348 348 348 348 347
326 337 338 340 335 335 334 333 338 334 339 338 338 338 339 341 341 338 338 339 343 345 345 347 345 342 342 340 344 344 343 342 342 341 342 343 344 344 343 344 344 345 345 345 346 346 347 347 348
336 337 335 338 337 336 335 340 337 338 338 338 339 341 346 347 346 345 345 345 345 346 346 345 346 346 344 342 336 340 345 345 344 343 343 344 344 344 345 346 345 346 346 344 343 345 344 346 347
322 319 318 334 335 337 339 344 340 340 341 341 342 347 347 347 347 346 346 346 346 346 346 345 345 345 344 345 348 350 347 346 347 346 346 346 346 347 347 346 343 337 334 334 334 333 334 335 337
315 319 320 321 335 338 335 343 341 343 342 345 346 347 346 346 346 346 346 346 346 346 345 344 343 345 348 349 352 352 351 349 348 348 347 347 346 342 333 324 319 318 319 322 323 326 326 325 324
319 320 318 318 320 335 335 342 340 340 344 345 346 346 346 346 345 345 346 346 346 345 344 342 347 350 349 349 350 350 349 349 346 342 331 323 319 316 316 315 316 317 320 321 322 323 325 325 325
318 318 319 320 319 322 337 343 342 343 344 343 345 345 345 344 345 344 345 344 343 343 344 344 348 351 350 348 346 346 343 335 330 323 320 315 315 314 313 313 313 315 316 320 322 324 325 325 325
318 318 317 323 324 321 335 344 343 342 343 343 343 344 345 345 346 344 343 343 341 340 339 342 345 348 347 347 346 343 333 328 325 320 316 315 313 311 311 310 310 310 310 310 317 320 321 321 321
319 319 320 323 326 325 324 325 331 335 342 343 343 344 345 345 345 344 343 340 338 335 331 337 342 344 343 342 339 333 330 326 323 317 316 315 315 312 310 309 308 308 308 309 315 317 316 318 316
321 320 322 325 326 326 324 325 321 322 332 341 341 343 344 343 344 343 341 338 336 333 325 326 334 334 326 329 331 329 325 323 317 315 316 316 316 315 314 312 311 310 310 311 314 315 314 315 314
322 321 325 323 321 321 322 320 320 324 331 329 335 342 342 343 343 341 339 337 335 331 323 319 331 329 327 329 330 328 325 318 315 316 316 317 317 316 315 314 313 313 313 313 313 313 314 315 316
322 322 319 318 317 320 320 320 319 319 325 331 333 341 341 341 340 339 337 335 332 329 322 317 321 322 321 323 321 318 317 316 317 316 317 318 318 317 316 315 315 317 317 317 317 316 316 314 315
318 317 318 320 321 322 319 321 319 322 325 326 337 340 339 339 339 337 335 332 330 328 320 318 319 319 319 319 318 318 316 318 317 318 319 319 318 316 317 317 318 319 318 318 318 317 317 316 316
321 317 317 321 321 321 321 324 326 327 326 331 339 339 338 337 338 336 333 331 330 327 320 317 316 316 316 315 316 315 316 317 317 318 319 319 318 318 319 318 319 319 319 318 318 318 317 317 316
322 321 317 319 320 321 321 329 329 327 327 333 338 337 336 337 336 335 332 330 329 327 325 317 316 317 317 315 318 319 319 319 318 316 319 320 320 321 321 321 320 320 320 319 320 319 318 317 316
320 321 321 317 325 325 323 326 328 329 327 327 334 335 335 336 335 333 331 330 329 328 325 322 318 318 318 318 318 317 317 319 319 320 320 320 321 321 320 320 320 317 317 316 317 319 316 315 315
323 322 318 316 320 323 324 322 325 327 326 325 327 335 336 336 334 333 331 330 330 328 325 325 323 320 320 320 320 321 321 321 322 322 322 321 321 321 320 318 316 314 314 315 316 315 314 313 313
323 323 319 320 320 320 319 319 321 325 327 327 328 330 335 335 334 333 331 330 329 327 325 325 325 324 322 322 323 323 323 322 322 323 322 322 322 320 315 312 311 311 311 311 311 311 311 311 310
Wind_Speed
7 6 6 1 4 4 2 3 4 3 4 18 21 17 11 16 3 5 27 18 24 20 19 16 14 14 13 12 11 11 11 11 11 11 11 12 12 12 12 12 11 11 11 13 14 12 10 9 9
5 6 1 1 4 4 3 2 1 3 19 31 31 24 23 6 17 22 25 25 22 19 17 15 14 13 13 13 13 13 12 12 13 13 12 12 12 12 12 12 12 11 11 12 11 9 7 7 8
3 3 0 4 3 1 1 4 5 4 6 2 8 17 10 10 20 20 27 24 22 19 17 17 16 16 15 14 14 14 13 13 13 13 13 12 11 10 10 10 10 9 8 7 6 5 3 2 3
2 1 2 4 4 4 5 5 22 21 11 10 13 11 16 13 17 22 25 22 21 20 19 18 17 17 16 15 14 14 14 13 13 13 12 12 11 10 9 8 7 6 5 4 3 4 3 3 3
2 2 2 4 5 2 15 25 21 16 14 20 15 9 12 18 23 25 23 22 21 22 19 18 16 15 15 14 13 13 12 13 13 13 13 13 12 12 11 11 10 7 5 3 2 4 5 6 6
3 0 4 3 6 5 6 14 24 26 30 30 27 20 11 22 26 24 21 19 18 19 18 17 16 14 14 13 13 12 12 12 12 12 13 13 13 14 14 15 15 14 13 11 9 8 8 8 9
5 3 4 6 7 5 8 10 13 20 24 10 27 12 22 25 19 22 18 16 15 16 16 15 15 14 13 12 11 11 10 11 11 12 11 12 14 13 16 16 16 17 14 15 13 15 13 11 9
3 4 0 3 10 5 4 3 20 15 5 24 30 7 19 32 21 20 17 14 14 14 14 15 15 15 13 12 10 11 10 10 10 11 12 10 9 11 12 13 15 15 16 16 14 15 15 14 11
6 3 4 3 9 2 5 1 4 12 23 6 3 27 30 29 25 22 19 15 17 16 16 15 15 14 14 14 11 12 13 13 12 10 7 9 9 11 12 13 16 13 14 16 15 14 14 13 10
3 4 3 8 20 7 9 9 5 9 9 7 18 30 28 29 31 22 19 18 17 17 17 13 13 12 11 13 12 9 9 10 10 10 11 12 9 8 9 9 11 11 12 14 14 13 13 13 12
3 5 6 14 30 35 17 13 17 21 9 7 29 33 31 32 31 25 21 16 17 17 19 13 11 11 9 9 7 6 5 4 6 9 10 10 7 8 7 8 8 8 8 10 11 11 11 10 11
6 24 12 21 33 34 24 24 17 19 11 23 29 28 31 36 33 28 24 21 20 17 16 13 12 10 10 9 4 3 5 2 4 6 4 3 2 6 8 9 11 11 10 11 12 14 15 14 15
14 6 16 25 24 28 25 13 4 13 19 24 29 28 30 27 29 28 27 25 21 19 22 16 9 5 6 8 4 4 4 4 4 3 4 4 7 8 12 15 15 14 14 15 15 16 16 16 17
3 21 19 16 22 17 12 3 1 23 23 25 30 28 16 20 21 26 27 30 31 26 24 18 14 11 11 11 9 7 6 6 4 5 6 8 9 13 17 16 15 15 17 19 22 23 22 22 22
30 13 6 8 17 6 22 5 4 10 23 29 19 21 24 22 25 33 34 34 31 26 22 16 12 10 9 13 16 16 11 10 9 9 9 11 13 15 17 18 19 20 22 23 23 24 26 28 27
6 10 8 12 13 18 7 7 10 25 23 19 26 28 23 19 19 21 22 23 23 20 17 13 11 12 11 12 14 13 12 13 12 13 14 14 17 18 18 20 20 18 17 17 17 18 19 21 23
8 2 2 7 24 13 4 8 18 29 26 28 33 29 23 18 14 15 16 17 18 18 18 16 13 11 9 11 13 13 11 11 9 11 13 16 18 17 14 13 13 13 13 14 15 16 17 19 19
2 4 5 6 11 13 14 10 20 30 32 30 33 28 25 20 15 14 15 15 14 13 13 15 13 10 9 11 10 11 10 9 9 9 7 7 8 10 11 12 12 12 13 14 16 16 15 16 17
2 4 4 8 7 8 13 15 23 32 26 25 31 30 25 21 19 17 16 14 12 12 12 12 15 13 12 12 11 11 9 5 1 3 7 9 11 10 11 12 12 12 14 15 15 15 16 19 20
6 6 7 7 4 6 9 18 20 22 31 38 35 34 33 29 27 23 18 14 12 11 11 14 15 16 14 13 15 12 8 3 3 7 8 12 15 16 15 15 15 14 14 14 14 15 17 19 22
5 6 4 5 3 5 8 2 5 8 20 30 35 42 42 41 36 29 24 19 15 12 13 14 14 13 14 13 13 11 6 3 5 7 10 14 15 15 15 15 15 15 16 15 14 15 17 18 18
3 5 4 3 5 3 4 3 6 10 15 22 28 33 42 42 38 33 28 21 15 13 13 15 14 13 14 17 14 9 5 1 1 4 7 11 14 15 15 15 15 15 15 14 15 16 17 18 20
8 0 1 4 4 4 1 4 8 6 9 12 20 35 41 48 43 36 29 20 16 12 12 16 16 14 16 17 14 10 8 8 7 6 6 9 11 13 14 15 16 15 15 15 15 17 18 17 15
3 5 8 5 4 2 5 5 7 5 9 17 22 37 42 45 41 34 25 20 17 13 14 17 18 16 16 15 13 10 9 10 8 6 3 4 7 10 12 13 14 17 17 18 19 19 21 19 18
8 7 4 4 4 5 5 2 8 9 6 12 29 36 38 43 41 35 31 26 20 16 17 20 20 19 17 15 14 12 10 12 8 6 3 0 5 10 13 12 12 14 15 17 17 18 19 20 21
4 8 6 5 4 5 6 3 5 6 11 15 30 41 37 38 40 37 33 28 21 17 17 21 22 20 18 17 17 14 12 10 8 7 6 2 4 8 10 8 9 10 12 15 18 20 19 21 19
5 2 5 6 2 3 4 1 4 6 9 18 23 29 36 42 41 38 35 29 21 18 17 23 23 21 18 17 16 14 11 10 5 4 2 2 3 5 9 12 14 15 16 17 18 20 20 18 18
8 6 3 4 3 3 4 4 5 3 6 9 15 24 30 39 40 40 38 31 23 19 18 19 21 19 17 15 12 9 8 7 5 5 4 4 6 10 13 16 18 16 17 18 18 17 16 17 19
1 1 5 5 5 5 2 5 6 10 8 10 18 33 41 42 44 44 41 33 27 23 25 23 23 21 18 14 12 11 8 7 7 5 4 6 9 12 16 18 20 19 18 17 17 17 17 20 20
6 5 5 5 6 3 4 6 5 9 17 23 24 26 37 41 45 44 42 37 34 31 31 28 23 20 17 13 11 8 7 10 12 9 8 10 12 15 16 14 15 16 17 17 17 17 17 17 20
Wind_Direction
306 298 300 3 79 81 226 263 302 215 24 77 93 92 103 51 82 154 145 153 152 139 137 141 142 137 133 125 114 104 98 93 88 86 86 86 87 88 91 94 98 102 108 122 130 126 113 105 122
305 311 32 331 73 86 282 240 8 354 123 92 78 67 45 52 97 132 148 150 138 134 136 137 137 135 130 123 114 106 98 91 86 83 83 85 86 85 85 86 87 92 105 124 134 136 120 113 119
296 289 14 101 63 191 187 178 133 104 121 14 84 64 72 110 112 136 144 142 136 137 138 137 134 131 125 118 111 104 98 93 89 86 86 87 87 86 85 85 86 89 98 119 136 146 135 115 139
88 234 197 89 189 206 181 162 132 135 112 97 97 66 92 122 133 139 138 139 139 136 134 129 126 122 118 114 111 108 103 99 94 90 87 86 84 81 78 77 80 85 99 133 172 200 223 233 223
280 243 59 88 233 52 123 137 143 115 106 98 97 100 97 117 120 126 135 138 140 134 132 127 122 118 116 114 111 107 103 98 92 86 81 76 72 67 62 56 49 41 32 14 314 276 271 271 267
291 356 53 63 45 56 29 144 124 99 102 104 108 112 105 132 127 125 124 135 135 132 133 128 125 122 119 115 111 107 102 95 89 83 80 75 74 68 63 53 47 40 32 21 6 348 329 315 306
178 87 209 145 127 100 126 123 119 122 135 139 127 119 140 152 147 135 127 130 134 134 129 127 122 117 112 107 103 97 90 85 82 78 83 73 62 62 52 46 41 35 37 31 31 25 14 357 347
219 115 241 166 165 94 143 242 108 76 79 133 121 151 160 163 159 140 127 117 130 127 122 120 116 107 99 83 83 77 74 73 76 76 75 67 59 53 45 38 25 22 25 26 26 18 19 16 16
219 57 17 12 89 121 151 3 11 85 128 147 76 148 147 162 161 155 145 142 136 134 125 119 123 104 100 73 84 77 70 65 69 55 53 36 35 39 34 30 22 25 15 8 4 2 8 15 17
138 81 232 144 128 110 99 98 86 92 43 51 134 140 149 161 165 167 171 167 163 150 144 132 128 122 99 88 86 70 63 57 58 55 44 31 29 26 22 23 14 9 4 2 1 354 345 343 346
100 147 188 134 130 130 123 136 147 129 141 238 155 161 162 168 177 186 180 174 175 154 153 148 151 146 125 112 87 67 66 67 48 57 41 40 48 11 353 354 343 339 338 338 328 320 307 308 313
108 147 155 150 130 129 143 137 149 151 144 156 163 166 169 182 188 190 187 189 179 172 173 160 159 145 132 129 93 89 113 115 87 70 54 54 9 305 306 301 299 306 318 325 318 317 320 313 305
103 140 150 159 157 141 144 150 218 164 129 153 167 181 186 192 195 197 191 193 183 155 158 165 162 148 137 135 138 132 130 121 153 195 218 244 251 292 306 308 293 291 287 297 297 301 303 300 296
134 139 130 141 124 140 140 122 57 175 160 169 169 189 175 173 172 176 170 163 163 156 161 162 159 171 186 187 177 209 220 226 235 259 255 238 265 292 305 309 300 297 299 297 294 292 287 287 288
130 107 56 159 145 124 120 10 264 112 169 174 175 163 151 141 139 143 148 150 158 162 168 182 181 190 208 213 221 221 227 233 244 244 247 260 277 290 298 303 305 306 302 297 293 290 290 287 285
167 124 152 217 209 173 127 209 240 172 176 193 174 161 157 153 156 155 157 161 162 166 184 206 213 224 234 221 212 214 222 232 240 247 260 279 290 295 299 301 304 308 307 306 309 311 307 301 295
5 219 277 148 205 163 196 160 222 185 182 170 157 156 156 154 164 170 179 185 186 189 194 209 218 222 212 208 203 214 216 234 240 258 276 289 292 302 313 322 327 327 328 330 336 337 335 328 319
284 9 315 270 190 197 185 176 190 199 174 163 158 166 167 173 179 189 194 197 197 195 190 202 205 199 195 197 203 218 227 247 268 291 305 323 331 337 342 344 345 343 344 346 352 359 1 353 344
204 232 250 270 250 127 173 158 182 183 164 162 170 181 181 193 189 201 207 204 209 215 205 202 202 187 188 177 197 217 229 213 186 19 12 16 11 8 12 15 13 11 3 2 358 4 12 11 7
266 265 277 276 38 84 161 175 182 175 180 180 176 176 177 176 179 195 208 216 217 214 206 199 195 190 193 213 206 220 199 158 67 35 39 42 36 30 26 21 18 13 10 10 14 9 12 20 15
263 211 204 210 355 39 119 26 186 222 195 191 187 184 182 185 181 190 199 206 209 202 195 193 192 192 192 197 202 193 179 107 32 40 42 49 38 33 27 27 28 25 22 23 22 15 9 12 17
227 214 198 104 113 200 115 249 228 212 203 202 186 178 180 177 187 190 192 191 195 196 194 200 192 180 171 180 192 191 175 116 99 67 62 52 41 32 24 22 23 23 22 20 21 12 11 9 12
215 182 91 77 117 105 42 101 259 149 206 215 184 181 181 186 191 190 189 192 192 191 192 192 192 187 180 181 188 190 192 181 156 120 69 45 33 26 22 19 17 21 23 18 15 8 5 3 11
82 72 36 47 93 43 232 124 291 211 203 217 177 181 181 183 188 188 185 188 183 181 186 182 181 180 176 175 175 174 175 164 151 135 118 53 23 16 15 18 16 11 12 8 7 5 2 1 3
78 60 7 359 12 231 317 83 239 304 224 198 173 179 179 181 186 183 184 184 183 179 183 184 180 177 175 180 181 180 164 151 162 161 174 28 345 354 7 9 12 8 355 347 346 348 343 351 354
186 145 153 195 205 250 319 296 286 318 320 150 168 169 172 176 185 186 187 189 185 179 180 183 178 179 176 177 179 174 168 161 160 170 190 224 326 348 349 343 338 331 332 332 327 324 327 333 333
175 124 184 110 78 82 265 197 352 351 28 83 130 154 167 180 187 189 190 190 186 189 184 189 185 181 175 175 175 177 177 175 189 213 251 306 304 327 339 326 322 321 318 319 317 314 317 326 323
137 158 61 13 168 220 281 284 234 232 142 123 140 160 176 183 189 191 191 192 195 198 189 191 197 193 185 185 192 199 210 212 222 221 265 303 323 322 317 318 316 316 315 316 314 313 320 317 320
49 107 68 119 137 170 201 265 216 204 190 172 171 180 187 190 194 194 193 196 202 198 197 194 197 203 201 199 204 198 199 209 233 255 283 281 289 298 303 311 312 313 314 313 314 316 315 321 323
161 231 139 131 260 217 160 263 276 196 200 191 193 186 193 200 200 198 194 199 200 199 200 201 199 207 203 205 202 192 194 208 224 244 266 273 283 300 311 319 319 324 328 332 334 331 330 329 330